Orbital Elements at Epoch 2459000.5 (2020-May-31.0) TDB
Reference: JPL 18 (heliocentric ecliptic J2000)
Element | Value | Uncertainty (1-sigma) | Units |
e | .1600470542181183 | 3.3003e-08 | |
a | 2.591986009501015 | 2.6527e-08 | au |
q | 2.177146284105802 | 8.6026e-08 | au |
i | 9.302964594611284 | 7.6527e-06 | deg |
node | 312.9594103793671 | 2.5257e-05 | deg |
peri | 277.6691275975105 | 3.7198e-05 | deg |
M | 214.6219256974136 | 2.8063e-05 | deg |
tp | 2459616.022336491633 (2022-Feb-05.52233649) | 0.00012335 | TDB |
period | 1524.219124513783 4.17 | 2.3399e-05 6.406e-08 | d yr |
n | .236186512956159 | 3.6258e-09 | deg/d |
Q | 3.006825734896228 | 3.0772e-08 | au |
|
| | Orbit Determination Parameters
Additional Information
|